This demonstration page uses our WeatherBlox Daily Observations layout. Learn more.

Left ArrowRight Arrow

44.31136, -96.79839

Hourly Observations for June 15, 2019

Temp ( °F °C ) Dew Point ( °F °C ) Humidity (%) Winds ( mph kmh ) Pressure ( in mb ) Visibility ( mi km ) Precip ( " mm )
12:56 am 00:56 Clear 68 20 61 16.1 78 78 E 5 7 29.66 1004 10 16 0.00 0.00
1:56 am 01:56 Clear 64 17.8 60 15.6 87 87 NE 3 6 29.65 1004 9 14 0.00 0.00
2:56 am 02:56 Clear 66 18.9 59 15 78 78 ENE 9 15 29.67 1005 10 16 0.00 0.00
3:56 am 03:56 Clear 66 18.9 60 15.6 81 81 ENE 9 15 29.67 1005 10 16 0.00 0.00
4:56 am 04:56 Clear 65 18.3 60 15.6 84 84 E 6 9 29.67 1005 10 16 0.00 0.00
5:56 am 05:56 Sunny 65 18.3 60 15.6 84 84 E 6 9 29.67 1005 10 16 0.00 0.00
6:56 am 06:56 Mostly Cloudy 67 19.4 61 16.1 81 81 Calm 29.68 1005 10 16 0.00 0.00
7:56 am 07:56 Sunny 68 20 61 16.1 78 78 SE 3 6 29.69 1005 10 16 0.00 0.00
8:56 am 08:56 Sunny 70 21.1 62 16.7 76 76 SE 7 11 29.70 1006 10 16 0.00 0.00
9:56 am 09:56 Partly Cloudy 74 23.3 63 17.2 69 69 Calm 29.71 1006 10 16 0.00 0.00
10:56 am 10:56 Mostly Cloudy 77 25 64 17.8 64 64 SSW 3 6 29.72 1006 10 16 0.00 0.00
11:56 am 11:56 Mostly Cloudy 79 26.1 63 17.2 58 58 Calm 29.72 1006 10 16 0.00 0.00
12:20 pm 12:20 Cloudy with Thunderstorms 75 24 64 18 69 69 WNW 6 9 29.64 1004 10 16 0.00 0.00
12:24 pm 12:24 Cloudy with Thunderstorms 75 24 64 18 69 69 W 5 7 29.64 1004 7 11 0.00 0.00
12:52 pm 12:52 Cloudy with Haze 70 21 57 14 64 64 NE 10 17 29.66 1005 5 8 0.00 0.00
12:56 pm 12:56 Cloudy with Thunderstorms 70 21.1 58 14.4 66 66 NE 9 15 29.73 1007 7 11 0.00 0.00
1:09 pm 13:09 Mostly Cloudy with Nearby Thunderstorms 72 22 61 16 69 69 NE 13 20 29.66 1004 8 13 0.00 0.00
1:43 pm 13:43 Mostly Cloudy 72 22 63 17 73 73 NE 15 24 29.65 1004 10 16 0.00 0.00
1:56 pm 13:56 Mostly Sunny 73 22.8 64 17.8 74 74 NE 14 22 29.73 1007 10 16 0.00 0.00
2:56 pm 14:56 Partly Cloudy with Nearby Thunderstorms 75 23.9 65 18.3 71 71 NE 14 22 29.72 1007 10 16 0.00 0.00
3:12 pm 15:12 Mostly Cloudy 73 23 64 18 74 74 NE 14 22 29.65 1004 10 16 0.00 0.00
3:31 pm 15:31 Cloudy with Light Rain 70 21 64 18 83 83 ENE 12 19 29.67 1005 6 10 0.00 0.03
3:52 pm 15:52 Mostly Cloudy with Nearby Thunderstorms 70 21 64 18 83 83 ENE 16 26 29.66 1005 10 16 0.01 0.25
3:56 pm 15:56 Mostly Cloudy with Nearby Thunderstorms 70 21.1 65 18.3 84 84 ENE 12 19 29.75 1007 10 16 0.01 0.25
4:09 pm 16:09 Partly Cloudy 72 22 64 18 78 78 ENE 9 15 29.68 1005 10 16 0.00 0.00
4:56 pm 16:56 Partly Cloudy 72 22.2 65 18.3 79 79 NE 10 17 29.75 1008 10 16 0.00 0.00
5:56 pm 17:56 Mostly Cloudy 71 21.7 63 17.2 76 76 ESE 13 20 29.73 1007 10 16 0.00 0.00
6:04 pm 18:04 Cloudy with Thunderstorms 70 21 63 17 78 78 E 9 15 29.67 1005 10 16 0.00 0.00
6:09 pm 18:09 Cloudy with Strong Thunderstorms 70 21 63 17 78 78 NNW 36 57 29.71 1006 2 3 0.19 4.83
6:12 pm 18:12 Cloudy with Strong Thunderstorms 64 18 61 16 88 88 N 36 57 29.73 1007 1 2 0.41 10.41
6:15 pm 18:15 Cloudy with Strong Thunderstorms 63 17 61 16 94 94 N 16 26 29.76 1008 1 1 0.54 13.72
6:19 pm 18:19 Cloudy with Strong Thunderstorms 63 17 61 16 94 94 N 12 19 29.76 1008 1 2 0.59 14.99
6:22 pm 18:22 Cloudy with Strong Thunderstorms 63 17 61 16 94 94 NNE 7 11 29.76 1008 2 3 0.62 15.75
6:30 pm 18:30 Cloudy with Thunderstorms 63 17 61 16 94 94 NE 8 13 29.75 1007 6 10 0.65 16.51
6:56 pm 18:56 Mostly Cloudy with Light Rain 67 19.4 65 18.3 93 93 E 7 11 29.78 1008 10 16 0.66 16.76
7:56 pm 19:56 Mostly Sunny 67 19.4 63 17.2 87 87 SE 6 9 29.79 1009 10 16 0.01 0.25
8:56 pm 20:56 Sunny 65 18.3 63 17.2 93 93 Calm 29.81 1009 10 16 0.00 0.00
9:56 pm 21:56 Mostly Cloudy 65 18.3 63 17.2 93 93 NE 5 7 29.82 1010 10 16 0.01 0.25
10:04 pm 22:04 Cloudy 64 18 64 18 100 100 NNE 5 7 29.77 1008 10 16 0.00 0.00
10:25 pm 22:25 Cloudy 64 18 63 17 94 94 NE 5 7 29.78 1009 10 16 0.00 0.00
10:45 pm 22:45 Partly Cloudy 64 18 63 17 94 94 NNE 3 6 29.77 1008 10 16 0.00 0.00
10:56 pm 22:56 Mostly Cloudy 64 17.8 63 17.2 96 96 Calm 29.83 1010 9 14 0.00 0.00
11:56 pm 23:56 Mostly Clear with Mist and Fog 61 16.1 61 16.1 100 100 Calm 29.83 1010 5 8 0.00 0.00

Powered by AerisWeather